Flag for U.S.A. Weather past 2 weeks in Cape Coral, Florida, U.S.A.

Now
79 °F

Sunny.


Feels Like: 83 °F
Forecast: 75 / 92 °F
Wind: No wind

Location: Page Field

Current Time: Jun 30, 2015 at 8:54:37 AM

Latest Report: Jun 30, 2015 at 7:53 AM


Visibility: 10 mi

Pressure: 30.13 "Hg

Humidity: 84%

Dew point: 74 °F

Location of Cape CoralLocation

Historic Weather in Cape Coral — Graph

°F

Cape Coral temperature yesterday

Maximum temperature yesterday: 90 °F (at 1:53 PM)
Minimum temperature yesterday: 77 °F (at 4:53 AM)
Average temperature yesterday: 83 °F

Past Weeks' High & Low Weather Summary

 TemperatureHumidityPressure
High97 °F (Jun 18, 10:53 AM)100% (Jun 16, 1:53 AM)30.16 "Hg (Jun 16, 1:53 AM)
Low73 °F (Jun 16, 5:53 AM)43% (Jun 17, 4:53 PM)30.01 "Hg (Jun 17, 5:53 PM)
Average82 °F77%30.08 "Hg
* Reported Jun 15 7:53 AM — Jun 30 7:53 AM, Cape Coral, Weather by CustomWeather, © 2015

Note: Actual official high and low records may vary slightly from our data, if they occured in-between our weather recording intervals... More about our weather records

Advertising

Cape Coral weather history for previous 24 hours

 ConditionsComfort  
Time TempWeatherWind HumidityBarometerVisibility
7:53 AM
Tue, Jun 30
79 °FSunny.No wind84%30.13 "Hg10 mi
6:53 AM76 °FClear.No wind91%30.13 "Hg10 mi
5:53 AM74 °FClear.No wind94%30.11 "Hg10 mi
4:53 AM76 °FClear.No wind85%30.09 "Hg10 mi
3:53 AM76 °FClear.No wind88%30.09 "Hg10 mi
2:53 AM76 °FClear.5 mph85%30.09 "Hg10 mi
1:53 AM77 °FClear.5 mph85%30.10 "Hg10 mi
12:53 AM77 °FClear.5 mph88%30.10 "Hg10 mi
11:53 PM
Mon, Jun 29
78 °FClear.5 mph82%30.12 "Hg10 mi
10:53 PM78 °FClear.7 mph79%30.11 "Hg10 mi
9:53 PM80 °FClear.6 mph76%30.10 "Hg10 mi
8:53 PM82 °FSunny.5 mph74%30.09 "Hg10 mi
7:53 PM86 °FSunny.8 mph63%30.07 "Hg10 mi
6:53 PM89 °FSunny.10 mph61%30.06 "Hg10 mi
5:53 PM89 °FSunny.10 mph61%30.06 "Hg10 mi
4:53 PM89 °FSunny.8 mph61%30.05 "Hg10 mi
3:53 PM86 °FThundershowers. Scattered clouds.14 mph63%30.07 "Hg10 mi
2:53 PM90 °FPassing clouds.15 mph59%30.07 "Hg10 mi
1:53 PM90 °FScattered clouds.16 mph59%30.09 "Hg10 mi
12:53 PM89 °FPassing clouds.13 mph61%30.09 "Hg10 mi
11:53 AM89 °FPassing clouds.9 mph61%30.10 "Hg10 mi
10:53 AM87 °FSunny.8 mph63%30.10 "Hg10 mi
9:53 AM86 °FPartly sunny.10 mph65%30.09 "Hg10 mi
8:53 AM84 °FSunny.5 mph72%30.07 "Hg10 mi
Weather by CustomWeather, © 2015

See weather overviewHow to use our weather pages